Temp
-12 -12 -12 -12 -12 -12 -12 -12 -12 -13 -13 -13 -14 -14 -15 -15 -15 -15 -15 -16 -16 -16 -16 -16 -16 -16 -16 -16 -16 -16 -16 -16 -15 -15 -15 -16 -15 -15 -15 -16 -16 -16 -15 -15 -16 -16 -16
-12 -12 -12 -12 -12 -12 -12 -12 -12 -13 -13 -13 -14 -15 -15 -15 -15 -16 -16 -16 -16 -16 -16 -16 -16 -16 -16 -16 -16 -16 -16 -16 -15 -15 -16 -16 -16 -16 -16 -16 -15 -16 -16 -16 -16 -16 -16
-13 -12 -12 -12 -12 -12 -12 -12 -12 -13 -13 -13 -14 -15 -15 -15 -16 -16 -16 -16 -16 -16 -16 -16 -16 -16 -16 -16 -16 -16 -16 -16 -16 -16 -16 -17 -16 -16 -15 -16 -15 -17 -16 -16 -15 -15 -15
-13 -13 -13 -13 -12 -12 -13 -12 -12 -13 -13 -13 -14 -15 -15 -16 -16 -16 -16 -16 -16 -16 -16 -16 -16 -17 -17 -16 -16 -16 -16 -16 -16 -17 -16 -16 -16 -16 -16 -16 -16 -16 -16 -16 -15 -14 -15
-13 -13 -13 -13 -13 -13 -13 -13 -12 -13 -13 -14 -14 -15 -16 -16 -16 -16 -16 -16 -16 -16 -17 -17 -17 -17 -17 -17 -17 -17 -17 -17 -17 -17 -17 -17 -16 -16 -17 -17 -17 -16 -16 -16 -15 -15 -15
-13 -13 -13 -13 -13 -13 -14 -13 -12 -13 -13 -14 -14 -15 -16 -16 -16 -16 -16 -16 -17 -17 -17 -17 -17 -17 -17 -17 -17 -17 -17 -17 -17 -17 -17 -17 -16 -16 -17 -17 -16 -16 -15 -15 -14 -14 -14
-13 -13 -13 -14 -14 -13 -14 -13 -12 -13 -13 -14 -15 -15 -16 -16 -16 -16 -17 -17 -17 -17 -17 -17 -17 -17 -17 -17 -17 -17 -17 -17 -17 -17 -17 -17 -16 -17 -17 -17 -16 -15 -15 -15 -15 -14 -14
-13 -13 -13 -14 -14 -13 -14 -13 -13 -13 -13 -14 -15 -15 -15 -15 -15 -16 -16 -17 -17 -17 -16 -17 -17 -17 -17 -17 -17 -17 -17 -17 -17 -17 -17 -17 -17 -17 -16 -16 -16 -15 -16 -16 -15 -15 -14
-13 -13 -14 -14 -14 -14 -14 -13 -13 -13 -13 -14 -15 -15 -15 -15 -15 -16 -16 -17 -17 -16 -16 -17 -17 -17 -17 -17 -17 -17 -17 -17 -17 -17 -17 -16 -16 -16 -16 -16 -16 -15 -15 -16 -15 -16 -15
-13 -14 -14 -14 -14 -14 -14 -13 -13 -13 -13 -14 -15 -15 -15 -15 -16 -16 -16 -16 -17 -17 -16 -16 -16 -16 -16 -16 -16 -16 -16 -17 -17 -17 -17 -16 -16 -16 -16 -16 -15 -16 -15 -15 -15 -16 -16
-13 -14 -14 -15 -15 -14 -14 -13 -13 -13 -14 -14 -15 -15 -15 -16 -16 -16 -16 -16 -17 -17 -16 -16 -16 -16 -16 -16 -16 -16 -16 -17 -17 -17 -17 -16 -16 -16 -16 -16 -15 -15 -15 -15 -15 -15 -15
-15 -15 -16 -15 -15 -14 -14 -13 -13 -13 -14 -15 -15 -15 -16 -16 -16 -16 -16 -16 -16 -16 -16 -16 -16 -16 -16 -16 -16 -16 -16 -16 -16 -16 -16 -16 -16 -16 -15 -15 -15 -15 -15 -15 -15 -15 -15
-17 -17 -17 -16 -15 -14 -14 -13 -13 -14 -14 -15 -15 -15 -16 -16 -16 -16 -16 -16 -16 -16 -16 -16 -16 -16 -16 -16 -16 -16 -15 -16 -16 -16 -16 -16 -16 -16 -15 -15 -15 -15 -15 -15 -15 -15 -15
-18 -18 -17 -16 -15 -14 -13 -13 -13 -14 -14 -15 -15 -16 -16 -16 -16 -16 -16 -16 -16 -16 -16 -16 -16 -16 -16 -16 -16 -15 -15 -16 -16 -16 -16 -16 -15 -15 -15 -15 -15 -15 -15 -15 -15 -15 -14
-18 -18 -17 -16 -15 -14 -13 -14 -14 -15 -15 -15 -15 -16 -16 -16 -16 -16 -16 -16 -16 -16 -16 -16 -15 -15 -15 -15 -15 -15 -15 -15 -15 -16 -16 -16 -16 -15 -15 -15 -15 -15 -15 -15 -14 -14 -14
-19 -18 -17 -16 -16 -15 -15 -14 -15 -15 -15 -15 -15 -15 -16 -16 -16 -16 -16 -16 -16 -15 -15 -15 -15 -15 -15 -15 -15 -15 -15 -15 -15 -15 -15 -15 -15 -15 -15 -15 -15 -15 -15 -15 -14 -14 -14
-18 -18 -18 -17 -17 -17 -16 -15 -15 -15 -15 -16 -15 -15 -16 -15 -16 -16 -16 -16 -15 -15 -15 -15 -15 -15 -15 -15 -15 -15 -15 -15 -15 -16 -15 -15 -15 -15 -15 -15 -15 -15 -15 -15 -15 -15 -14
-18 -17 -18 -18 -18 -18 -17 -16 -16 -15 -15 -15 -15 -15 -15 -15 -15 -15 -15 -16 -15 -15 -15 -15 -15 -15 -15 -15 -15 -15 -15 -15 -15 -15 -16 -15 -15 -15 -15 -15 -15 -15 -15 -15 -15 -15 -15
-18 -18 -19 -19 -18 -18 -18 -17 -16 -15 -16 -16 -15 -15 -15 -15 -15 -15 -15 -15 -15 -15 -15 -15 -15 -15 -15 -15 -15 -15 -15 -15 -15 -15 -15 -15 -15 -15 -15 -15 -15 -15 -15 -15 -15 -15 -15
-17 -18 -18 -18 -19 -18 -18 -17 -16 -16 -16 -16 -16 -15 -15 -15 -15 -15 -15 -15 -15 -15 -15 -15 -15 -15 -16 -16 -15 -15 -15 -15 -15 -15 -15 -15 -15 -15 -15 -15 -15 -15 -15 -15 -15 -15 -15
-18 -18 -18 -18 -19 -18 -18 -17 -16 -16 -16 -16 -15 -15 -15 -15 -15 -15 -15 -15 -15 -15 -15 -15 -15 -15 -15 -15 -16 -16 -15 -15 -15 -15 -15 -15 -15 -15 -15 -15 -15 -15 -15 -15 -15 -15 -15
-18 -18 -18 -19 -19 -18 -18 -17 -17 -16 -16 -16 -15 -15 -15 -15 -15 -15 -15 -15 -15 -15 -15 -15 -15 -15 -15 -15 -15 -15 -15 -15 -15 -15 -15 -15 -15 -15 -15 -15 -15 -15 -15 -15 -15 -15 -15
-18 -18 -19 -19 -19 -18 -18 -17 -17 -16 -16 -16 -15 -15 -15 -15 -15 -15 -15 -15 -15 -15 -15 -15 -15 -15 -15 -15 -15 -15 -15 -15 -15 -15 -15 -15 -15 -15 -15 -15 -15 -15 -15 -15 -15 -15 -15
-18 -18 -19 -19 -19 -18 -18 -18 -17 -17 -16 -16 -16 -16 -15 -15 -15 -15 -15 -15 -15 -15 -15 -15 -15 -15 -15 -15 -15 -15 -15 -15 -15 -15 -15 -15 -15 -15 -15 -15 -15 -15 -15 -15 -16 -16 -16
-18 -19 -18 -18 -19 -18 -18 -17 -17 -17 -16 -16 -16 -16 -16 -15 -16 -15 -15 -15 -15 -15 -15 -15 -15 -15 -15 -14 -14 -14 -15 -15 -15 -15 -15 -15 -15 -15 -15 -15 -15 -15 -15 -15 -15 -16 -16
-19 -18 -19 -18 -19 -18 -18 -17 -17 -17 -16 -16 -16 -16 -16 -16 -15 -16 -15 -15 -15 -15 -15 -15 -15 -15 -14 -14 -14 -14 -14 -14 -14 -14 -15 -15 -15 -15 -15 -15 -15 -15 -16 -16 -16 -15 -16
-19 -19 -18 -19 -19 -18 -18 -18 -17 -16 -16 -16 -16 -16 -16 -16 -15 -15 -15 -15 -15 -15 -15 -15 -15 -15 -14 -14 -14 -14 -14 -14 -14 -15 -15 -15 -15 -15 -15 -15 -15 -16 -16 -16 -16 -16 -16
-19 -19 -19 -19 -19 -18 -18 -18 -17 -16 -16 -16 -16 -16 -16 -16 -16 -15 -15 -15 -15 -15 -15 -15 -15 -15 -14 -14 -14 -14 -14 -14 -14 -14 -15 -15 -15 -16 -16 -16 -15 -16 -16 -17 -17 -17 -16
-19 -19 -19 -19 -19 -19 -19 -17 -17 -17 -17 -17 -16 -16 -16 -16 -16 -16 -15 -15 -15 -15 -15 -15 -15 -15 -15 -15 -14 -14 -14 -14 -14 -14 -15 -15 -16 -16 -16 -16 -16 -16 -17 -17 -17 -17 -17
Height
5765 5765 5768 5770 5769 5770 5766 5769 5766 5763 5758 5755 5749 5746 5747 5746 5744 5744 5743 5742 5742 5743 5745 5746 5747 5747 5748 5748 5751 5753 5755 5758 5760 5762 5764 5767 5771 5776 5778 5782 5785 5789 5789 5792 5794 5795 5798
5754 5757 5761 5762 5764 5763 5760 5762 5760 5758 5754 5750 5746 5743 5743 5741 5738 5738 5738 5738 5739 5740 5742 5744 5744 5745 5746 5748 5750 5752 5755 5757 5760 5764 5767 5770 5774 5776 5778 5782 5786 5789 5790 5792 5794 5797 5800
5745 5747 5750 5754 5756 5756 5754 5756 5755 5753 5749 5745 5742 5740 5739 5736 5733 5732 5733 5734 5735 5737 5738 5740 5742 5743 5745 5747 5749 5752 5755 5757 5760 5764 5768 5771 5774 5778 5781 5784 5786 5789 5791 5795 5797 5800 5803
5736 5738 5741 5745 5748 5749 5748 5750 5750 5747 5745 5740 5738 5736 5734 5731 5727 5725 5727 5729 5732 5733 5735 5737 5739 5742 5743 5746 5748 5751 5754 5757 5761 5765 5769 5772 5776 5779 5782 5784 5788 5790 5793 5795 5798 5800 5801
5722 5727 5731 5735 5739 5742 5741 5743 5743 5742 5740 5736 5735 5733 5731 5728 5724 5723 5724 5727 5729 5730 5733 5736 5738 5740 5743 5745 5747 5751 5754 5758 5762 5766 5769 5772 5775 5779 5783 5787 5789 5791 5794 5796 5798 5798 5800
5710 5715 5721 5725 5730 5734 5734 5737 5738 5736 5734 5732 5731 5731 5729 5727 5724 5723 5723 5725 5727 5730 5732 5735 5737 5740 5741 5743 5746 5750 5754 5758 5761 5765 5768 5771 5776 5779 5783 5787 5790 5792 5794 5796 5797 5798 5799
5696 5703 5711 5716 5721 5726 5728 5731 5732 5731 5729 5728 5728 5728 5727 5725 5723 5722 5723 5724 5729 5730 5732 5735 5737 5738 5740 5743 5746 5750 5755 5759 5762 5766 5770 5773 5777 5780 5784 5787 5790 5792 5793 5794 5796 5798 5800
5681 5689 5698 5706 5712 5717 5720 5725 5726 5725 5724 5723 5724 5725 5725 5723 5722 5722 5724 5726 5728 5730 5731 5733 5735 5737 5740 5743 5746 5749 5754 5760 5763 5767 5771 5774 5777 5781 5784 5786 5789 5791 5792 5794 5795 5797 5799
5666 5675 5685 5694 5701 5708 5713 5718 5720 5719 5719 5719 5720 5722 5722 5721 5720 5721 5724 5726 5727 5729 5731 5734 5736 5738 5741 5744 5746 5749 5755 5761 5765 5768 5771 5775 5779 5781 5784 5786 5788 5790 5792 5792 5794 5795 5795
5648 5660 5671 5682 5691 5699 5705 5711 5713 5714 5714 5715 5716 5719 5719 5718 5720 5721 5723 5726 5728 5730 5733 5736 5738 5740 5743 5744 5747 5750 5754 5760 5764 5768 5771 5774 5776 5779 5782 5784 5787 5789 5791 5790 5791 5792 5792
5629 5644 5656 5668 5680 5690 5697 5703 5707 5708 5709 5710 5713 5715 5715 5714 5718 5720 5724 5726 5730 5732 5735 5739 5740 5742 5744 5746 5749 5752 5755 5759 5764 5767 5772 5775 5776 5778 5781 5784 5787 5789 5790 5791 5790 5789 5790
5608 5625 5642 5655 5669 5678 5687 5695 5699 5701 5703 5706 5708 5711 5711 5711 5716 5720 5724 5728 5731 5735 5736 5739 5741 5743 5746 5748 5750 5753 5757 5761 5764 5768 5771 5774 5777 5779 5782 5784 5785 5786 5787 5787 5787 5787 5786
5592 5609 5626 5643 5657 5668 5677 5685 5690 5695 5698 5702 5702 5707 5707 5710 5716 5720 5725 5729 5733 5735 5739 5742 5743 5745 5747 5750 5753 5756 5759 5762 5765 5768 5771 5773 5775 5778 5780 5781 5783 5784 5784 5784 5785 5784 5783
5575 5595 5612 5628 5642 5656 5667 5674 5682 5687 5692 5698 5697 5703 5705 5709 5715 5720 5726 5730 5734 5736 5739 5741 5744 5747 5749 5752 5754 5756 5759 5762 5765 5767 5769 5771 5774 5776 5778 5780 5780 5780 5781 5781 5780 5780 5781
5563 5581 5599 5612 5629 5642 5655 5664 5672 5679 5685 5693 5693 5699 5703 5709 5714 5720 5726 5730 5734 5737 5740 5743 5745 5748 5750 5752 5755 5756 5759 5761 5764 5765 5768 5769 5772 5774 5776 5777 5778 5778 5778 5779 5779 5779 5778
5548 5572 5588 5601 5616 5629 5642 5654 5663 5671 5679 5687 5690 5696 5702 5708 5713 5720 5725 5730 5734 5738 5741 5743 5745 5748 5750 5752 5754 5755 5757 5760 5762 5764 5766 5768 5770 5772 5773 5774 5775 5776 5777 5778 5778 5778 5777
5543 5562 5580 5593 5607 5619 5633 5643 5655 5663 5673 5679 5686 5691 5699 5706 5712 5719 5724 5730 5734 5737 5741 5743 5745 5746 5748 5749 5751 5753 5756 5758 5759 5761 5763 5765 5768 5770 5771 5773 5774 5775 5776 5777 5777 5777 5775
5538 5556 5574 5587 5601 5611 5624 5636 5645 5655 5665 5673 5682 5688 5696 5704 5711 5717 5723 5729 5733 5737 5740 5742 5744 5744 5745 5746 5748 5750 5752 5754 5757 5759 5761 5763 5765 5767 5769 5771 5773 5773 5774 5775 5775 5775 5773
5529 5550 5567 5581 5595 5607 5619 5631 5639 5649 5660 5669 5677 5686 5694 5702 5710 5716 5723 5728 5732 5736 5739 5741 5742 5742 5742 5744 5746 5747 5749 5752 5755 5757 5759 5762 5764 5765 5768 5771 5772 5772 5772 5772 5772 5771 5769
5527 5545 5564 5580 5592 5604 5616 5626 5635 5644 5653 5664 5674 5681 5690 5700 5708 5715 5721 5727 5732 5735 5738 5739 5740 5741 5741 5742 5743 5745 5747 5750 5752 5755 5758 5760 5762 5765 5767 5768 5768 5769 5769 5769 5768 5767 5766
5522 5542 5564 5576 5589 5602 5613 5623 5631 5640 5649 5660 5669 5678 5689 5698 5706 5713 5719 5725 5730 5734 5737 5738 5739 5740 5741 5742 5743 5744 5746 5748 5751 5753 5756 5758 5760 5762 5763 5764 5764 5765 5765 5765 5765 5763 5762
5522 5543 5560 5574 5587 5599 5610 5619 5628 5635 5645 5656 5666 5676 5686 5698 5705 5711 5717 5723 5729 5733 5735 5736 5738 5739 5739 5740 5742 5742 5744 5746 5749 5752 5753 5755 5758 5759 5759 5760 5760 5760 5761 5761 5759 5757 5755
5526 5545 5560 5573 5587 5597 5608 5617 5625 5633 5643 5653 5665 5676 5686 5694 5701 5707 5715 5723 5728 5731 5733 5735 5736 5738 5738 5739 5740 5741 5743 5745 5747 5750 5751 5753 5754 5755 5755 5756 5754 5755 5757 5753 5752 5750 5748
5530 5547 5560 5573 5584 5596 5606 5615 5623 5631 5641 5652 5663 5673 5682 5691 5698 5706 5713 5719 5724 5727 5730 5732 5734 5736 5737 5737 5738 5739 5741 5743 5745 5747 5748 5750 5750 5750 5750 5751 5747 5752 5750 5747 5743 5742 5740
5535 5548 5561 5572 5583 5595 5604 5613 5620 5629 5639 5649 5660 5671 5679 5688 5696 5702 5709 5716 5720 5724 5727 5730 5732 5733 5734 5735 5736 5737 5739 5741 5742 5743 5744 5745 5745 5745 5743 5743 5741 5741 5743 5740 5735 5734 5732
5539 5551 5562 5570 5583 5594 5603 5611 5619 5628 5638 5647 5657 5667 5677 5685 5693 5699 5706 5712 5716 5721 5724 5726 5728 5730 5732 5732 5733 5734 5735 5736 5737 5739 5739 5739 5738 5737 5736 5733 5731 5733 5734 5731 5726 5722 5722
5543 5554 5563 5571 5583 5593 5602 5610 5618 5626 5635 5645 5656 5665 5674 5681 5688 5696 5702 5708 5713 5717 5720 5722 5724 5726 5728 5729 5730 5731 5731 5732 5732 5733 5733 5731 5729 5728 5727 5724 5722 5725 5722 5719 5715 5715 5708
5547 5556 5565 5574 5584 5593 5601 5609 5617 5625 5635 5644 5653 5661 5670 5678 5685 5692 5698 5703 5708 5712 5715 5718 5720 5721 5722 5724 5725 5726 5726 5726 5727 5727 5726 5725 5723 5722 5720 5717 5715 5715 5711 5708 5704 5700 5697
5549 5557 5567 5576 5585 5593 5602 5609 5616 5625 5636 5643 5651 5658 5666 5674 5682 5688 5693 5698 5702 5705 5709 5711 5714 5715 5716 5717 5718 5718 5718 5719 5719 5719 5718 5715 5715 5712 5711 5710 5706 5701 5697 5695 5692 5689 5686
Wind_Speed
47 44 44 43 42 43 50 39 42 47 46 45 33 25 25 26 26 26 23 19 19 19 16 14 14 11 12 14 15 16 17 17 16 16 18 17 24 34 29 31 31 26 15 15 3 8 9
47 46 45 43 44 45 50 44 41 46 44 41 31 25 25 28 28 24 21 19 19 19 17 15 16 13 13 14 16 16 16 16 14 15 14 26 33 33 31 31 31 15 7 7 5 2 1
49 45 42 43 42 47 51 46 42 46 44 39 28 26 26 29 28 27 22 19 18 17 19 17 18 14 13 13 14 12 14 14 16 18 29 32 31 29 29 28 19 13 7 8 2 7 8
53 50 49 44 44 47 49 45 41 44 44 37 28 24 24 29 22 16 20 19 18 16 19 19 16 13 12 14 12 13 14 20 22 25 34 33 29 26 12 11 9 9 7 3 2 7 12
54 53 50 46 44 47 44 45 38 44 43 34 26 22 21 18 16 13 13 16 16 15 16 16 12 10 10 13 13 14 22 27 31 31 31 28 24 25 15 12 6 6 7 9 8 12 14
57 54 52 47 44 45 38 43 34 43 38 30 23 17 15 12 9 9 11 14 13 14 14 11 10 13 13 15 17 19 28 33 32 30 28 30 25 17 17 14 8 12 13 13 12 12 15
60 57 54 50 46 44 38 40 33 40 35 27 21 18 17 12 6 7 15 14 14 12 11 11 12 13 16 16 20 23 30 33 33 30 26 26 23 17 15 13 14 11 17 16 16 15 15
65 61 56 52 47 43 39 39 34 36 30 25 21 18 16 15 10 6 8 11 12 12 13 12 14 15 16 16 22 27 25 29 33 27 21 24 22 17 13 13 14 15 22 18 20 18 16
71 65 60 54 48 43 38 37 35 33 27 24 22 19 16 17 10 6 13 13 13 12 15 19 19 16 15 16 19 19 25 33 33 30 20 18 22 20 22 22 24 22 23 23 19 14 16
76 70 63 56 50 43 40 35 36 31 24 24 21 19 18 15 9 8 10 11 14 18 20 20 18 16 16 16 19 19 23 34 34 31 29 21 27 27 28 29 26 20 20 27 23 18 17
80 72 64 58 51 42 42 34 37 27 25 23 20 20 17 13 14 14 16 20 20 20 20 19 19 18 18 19 21 22 24 29 35 29 30 19 22 28 29 24 18 16 15 18 16 16 18
78 71 64 57 50 45 42 36 36 26 26 22 19 20 18 19 21 23 23 23 22 23 19 21 20 19 18 18 19 17 20 22 20 19 20 19 15 18 20 18 17 15 15 15 15 16 20
71 68 62 55 51 46 41 38 34 27 27 24 20 21 25 27 28 27 27 26 25 24 21 19 17 18 18 16 16 17 17 17 17 16 16 17 14 14 17 17 16 16 16 16 18 19 22
63 64 64 61 56 50 42 40 34 31 28 25 20 28 31 33 33 31 29 26 24 21 20 19 17 16 16 16 15 13 13 14 15 15 15 15 15 15 16 16 16 16 16 16 14 13 13
76 74 71 68 61 52 48 41 35 35 29 26 29 35 37 38 36 32 29 25 22 20 19 18 17 16 14 15 13 12 14 16 16 17 17 16 15 15 15 15 14 12 11 9 8 8 8
76 75 74 70 64 58 52 46 42 37 33 30 37 39 41 40 36 32 28 25 22 21 19 18 17 14 13 12 12 12 13 15 16 17 16 17 17 15 13 12 11 10 8 5 3 3 2
78 76 75 69 63 57 54 49 46 40 35 40 44 46 44 40 37 33 29 26 23 21 18 15 13 12 14 15 15 15 15 15 15 15 17 16 15 15 14 11 11 10 8 5 4 4 7
76 70 72 66 61 57 53 51 48 45 39 47 49 47 43 41 39 35 30 27 22 19 16 12 9 10 13 13 14 15 15 16 15 16 17 15 16 17 14 14 12 10 9 8 7 9 12
71 72 67 61 56 53 49 48 47 46 42 51 51 48 43 42 40 36 33 27 22 19 12 6 5 7 8 9 13 16 17 16 17 17 19 18 17 17 17 15 12 11 10 12 13 14 15
66 63 60 56 52 50 48 46 47 45 46 56 54 51 47 43 40 37 34 28 23 17 10 6 6 7 9 11 14 17 17 17 18 18 18 18 17 17 16 15 15 14 15 16 17 18 19
70 66 60 53 49 48 46 46 47 44 49 58 57 52 46 44 41 38 35 28 23 16 11 8 7 7 10 11 13 15 16 18 19 19 18 19 19 19 17 16 17 16 18 19 21 22 23
61 61 57 50 47 46 45 45 45 45 51 60 57 51 47 42 40 37 35 29 22 16 12 8 7 5 9 10 12 14 16 18 19 19 20 21 21 21 20 20 21 22 21 22 25 27 28
64 60 53 47 45 43 43 43 44 45 52 60 57 51 46 44 42 40 35 27 23 20 15 11 8 6 8 12 12 14 15 17 18 20 20 22 23 24 25 25 27 26 21 29 30 30 33
59 55 51 44 47 42 42 42 42 45 52 59 57 52 48 45 42 38 35 31 27 23 19 15 10 8 7 12 14 14 15 16 17 20 21 23 26 29 30 30 35 27 29 33 36 37 37
55 49 45 42 46 40 41 40 40 44 52 59 57 52 48 45 41 40 37 32 29 25 22 17 14 13 11 10 14 17 17 16 17 20 22 25 28 32 35 35 38 37 35 37 41 42 41
49 44 43 44 41 38 40 36 38 44 53 58 56 52 49 45 42 40 38 33 31 27 25 22 20 17 16 15 13 13 18 20 22 22 23 26 30 34 37 41 44 42 39 42 45 47 42
43 39 36 43 40 37 35 33 37 44 52 56 54 52 49 46 43 40 38 34 34 31 29 27 25 22 20 19 18 18 18 18 21 23 26 31 34 36 38 42 45 42 43 43 46 46 48
37 36 32 38 36 32 30 31 37 43 50 52 51 52 49 47 43 41 39 36 36 34 33 31 29 28 27 26 25 24 25 25 25 25 27 31 35 36 40 43 45 42 44 44 46 47 48
35 32 30 34 32 30 28 32 37 41 39 34 52 51 49 46 44 41 39 39 38 38 36 35 33 32 32 31 31 31 31 32 32 34 34 36 36 40 41 40 41 43 45 45 46 47 47
Wind_Direction
265 265 264 270 275 284 289 297 304 310 316 317 304 291 288 283 290 287 286 289 256 248 247 246 258 248 232 219 218 214 210 208 212 203 175 180 173 178 185 190 204 212 217 183 160 61 48
264 263 264 268 274 279 284 293 300 307 313 316 301 290 287 287 289 279 273 283 258 244 239 245 249 238 225 216 207 213 215 215 218 185 173 166 163 168 174 199 206 198 135 95 91 58 249
260 257 259 263 270 275 280 288 298 302 308 312 291 292 291 293 287 274 263 263 245 238 230 239 243 231 215 205 207 212 214 216 186 163 161 160 169 182 194 204 180 147 144 153 264 239 231
258 256 256 261 266 269 277 284 294 299 305 310 285 288 290 295 292 268 251 238 236 239 233 227 241 221 212 206 208 211 200 185 167 163 171 173 179 189 163 182 179 150 166 211 326 257 219
253 253 254 257 263 266 276 281 290 295 303 302 284 285 291 295 290 249 231 225 238 230 213 224 220 194 189 200 201 200 187 173 162 163 173 182 190 193 163 174 190 161 193 228 268 217 184
253 252 252 256 259 263 271 279 288 290 302 291 279 271 282 293 301 242 219 214 202 198 208 208 200 203 204 203 189 199 183 174 173 167 173 189 183 185 172 182 217 228 222 246 222 198 187
254 251 252 254 256 259 265 274 281 287 300 278 270 262 270 275 293 273 231 199 198 192 195 204 209 194 182 186 186 201 180 186 176 175 184 190 191 178 184 192 204 236 204 209 214 213 208
251 249 249 250 252 256 259 268 274 282 295 270 262 256 256 264 274 229 196 204 195 196 202 205 183 171 174 179 185 190 197 197 183 181 181 194 198 204 222 214 221 230 198 205 220 235 228
250 247 246 245 248 250 254 262 269 279 285 260 258 250 254 255 259 232 202 223 202 206 184 164 158 159 167 174 184 185 196 188 188 188 186 212 216 227 232 217 219 208 212 213 212 225 241
246 243 242 241 243 244 247 254 260 269 268 253 251 251 253 237 220 193 196 178 162 158 156 154 152 158 162 166 163 163 174 190 199 201 199 210 208 210 200 205 207 203 219 217 220 226 248
239 239 236 235 235 231 241 247 256 260 248 247 243 246 243 200 194 185 172 158 157 158 156 156 156 155 158 159 168 177 178 189 199 206 206 212 208 195 195 200 214 235 223 224 239 250 260
231 229 226 227 224 221 233 238 248 250 236 237 238 244 206 179 178 164 160 162 163 160 156 158 158 159 162 157 155 162 175 181 185 195 195 186 195 212 215 228 228 226 232 236 245 260 268
226 217 212 210 207 214 221 227 236 232 228 224 223 222 181 169 164 159 162 162 164 163 163 164 167 165 168 170 172 173 173 175 182 185 192 207 216 211 214 225 232 234 240 252 259 265 274
210 204 202 200 202 204 211 218 226 217 220 219 213 190 172 163 160 161 164 167 171 173 172 170 173 176 177 184 188 192 187 192 196 202 206 215 221 223 222 231 242 250 253 259 267 276 280
202 198 196 195 195 199 206 211 209 208 207 212 190 179 168 163 162 166 169 174 178 182 176 177 177 182 184 189 192 201 203 204 203 208 214 218 226 230 235 235 233 232 233 244 257 268 283
193 194 196 193 196 194 196 201 199 198 197 200 182 172 168 166 168 172 175 181 183 183 181 179 185 196 199 206 210 211 213 215 215 219 219 218 223 224 220 217 219 224 222 225 242 258 318
186 192 199 193 195 192 194 193 195 192 192 187 180 170 171 172 173 178 179 182 185 184 185 191 202 217 229 233 230 227 224 219 218 219 222 222 216 208 210 211 209 204 202 211 208 285 310
183 197 196 193 193 191 192 191 187 187 190 183 177 173 175 178 179 180 182 186 184 180 187 197 213 227 233 224 226 225 222 217 218 212 216 219 210 206 202 201 203 203 219 237 273 294 303
181 197 194 192 190 190 189 191 185 185 186 183 178 176 180 184 184 183 184 181 180 188 197 207 236 236 224 210 210 212 217 220 216 212 215 213 209 207 200 200 212 229 252 263 281 295 301
183 193 190 188 188 190 191 188 186 184 184 183 180 181 183 188 186 188 188 189 192 197 209 231 245 220 219 216 213 215 218 215 215 218 210 213 208 205 210 214 230 243 252 268 278 285 291
180 179 187 185 187 188 190 188 185 184 185 183 183 184 186 189 189 192 194 197 198 203 218 240 254 240 212 214 219 220 220 215 212 210 213 215 212 214 223 229 240 248 254 266 276 282 285
171 177 183 183 184 187 190 186 187 185 187 184 186 186 187 189 193 200 200 199 204 214 224 245 259 260 218 216 217 214 212 210 212 214 219 219 220 227 233 241 249 254 262 272 276 281 286
172 179 180 181 184 186 188 186 188 186 189 185 188 188 188 192 197 202 202 203 204 218 230 245 244 243 236 225 224 222 218 222 224 225 229 229 231 237 242 249 256 259 273 276 280 283 285
172 179 181 182 184 186 186 187 187 187 190 188 190 190 191 195 199 205 208 209 212 219 230 241 250 253 249 236 234 234 231 231 235 237 240 241 244 248 253 258 263 270 268 277 282 284 287
174 177 180 189 178 184 185 188 186 188 192 190 190 193 195 198 202 208 211 214 220 225 231 241 254 260 268 265 247 247 246 243 244 247 250 254 256 258 261 264 269 271 275 276 280 284 290
175 181 186 182 174 183 186 186 186 190 194 190 191 196 199 202 206 210 216 219 225 231 238 244 252 259 266 271 276 273 264 261 256 257 258 259 260 262 266 269 273 277 278 279 282 285 288
177 179 180 177 173 180 185 185 189 192 195 191 192 199 202 206 209 214 219 223 229 236 241 247 255 261 266 270 272 272 274 273 268 267 263 265 268 269 273 276 281 283 284 284 283 285 285
176 177 180 179 171 177 183 191 192 192 195 194 195 201 204 208 212 217 221 227 233 238 243 247 251 259 264 269 274 277 278 279 281 282 278 274 273 273 273 277 283 285 284 282 283 285 287
173 169 180 170 174 178 189 189 188 189 185 197 203 203 208 211 215 219 224 230 236 242 246 251 255 262 267 271 274 276 280 283 284 284 284 282 281 282 282 286 287 286 284 285 286 287 288